Retour au catalogue

STARLINK-11699

ActifCommunicationsVLEO
NORAD 63762·PAYLOAD·🇺🇸 United States

Lancé Apr 29, 2025 depuis Cape Canaveral Space Force Station

Loading…

Prochains Passages (prochaines 24 heures)

TLE

FraisSource: CelesTrak SupGP

Époque: Sep 14, 2026, 21:05 UTC

1 63762C 25089M   26257.87895833  .00064899  00000+0  50412-3 0  2578
2 63762  43.0008 232.2561 0001608 254.9500 180.7606 15.70803575    12

Suivez STARLINK-11699 en temps réel avec AllMySat

Download on the App Store